Simultaneous Nadir Overpasses (SNOs) Predictions

Prediction of SNOs between METOP-B and NOAA-19 Satellite Orbit:

Table of predicted SNOs for the next 14.0 days since TLE Epoch: 9/6/2013
Index Date (METOP-B) Time (METOP-B) Lat,Lon (METOP-B) SZA (METOP-B ) Date (NOAA-19) Time (NOAA-19) Lat,Lon (NOAA-19) SZA (NOAA-19 ) Distance(km) Time Diff (sec)
1 09/12/2013 12:00:08 73.63, -5.90 69.60 09/12/2013 11:58:55 73.68, -6.65 69.67 24.14 73
2 09/12/2013 12:50:53 -73.48, 161.07 110.54 09/12/2013 12:49:47 -73.48, 161.08 110.53 0.57 66
3 09/12/2013 13:41:33 73.46, -31.63 69.47 09/12/2013 13:40:55 73.46, -31.66 69.47 0.96 38
4 09/12/2013 14:32:15 -73.45, 135.68 110.53 09/12/2013 14:31:51 -73.46, 135.61 110.52 2.45 24
5 09/12/2013 15:22:56 73.39, -57.13 69.43 09/12/2013 15:22:58 73.39, -57.02 69.43 3.57 2
6 09/12/2013 16:13:38 -73.38, 110.18 110.57 09/12/2013 16:13:54 -73.39, 110.25 110.56 2.37 16
7 09/12/2013 17:04:18 73.37, -82.52 69.43 09/12/2013 17:05:02 73.37, -82.49 69.43 0.90 44
8 09/12/2013 17:55:00 -73.36, 84.79 110.56 09/12/2013 17:55:58 -73.38, 84.77 110.56 1.55 58
9 09/12/2013 18:45:49 72.89,-108.89 69.02 09/12/2013 18:46:58 72.96,-107.07 69.02 59.72 69




NCC Satellite Simultaneous Nadir Overpasses (SNOs) Prediction Service
